Location: NJAA Observatory
(40.6819°N, 74.8979°W)
Time: 00:19:47
(UTC-04:00)

Courier 1B - All Passes

Search period start: 22 April 2018 00:00
Search period end: 02 May 2018 00:00
Orbit: 962 x 1209 km, 28.3° (Epoch: 21 April)

Date Brightness Start Highest point End Pass type
(mag) Time Alt. Az. Time Alt. Az. Time Alt. Az.
22 Apr - 00:29:21 10° SW 00:34:40 26° S 00:40:11 10° ESE night (unlit)
22 Apr - 02:22:23 10° WSW 02:27:55 27° S 02:33:42 10° SE visible
22 Apr - 04:16:47 10° WSW 04:21:08 17° SSW 04:25:37 10° SSE visible
22 Apr - 21:46:11 10° S 21:48:12 11° SSE 21:50:14 10° SE visible
22 Apr - 23:36:07 10° SW 23:41:09 24° SSE 23:46:18 10° ESE night (unlit)
23 Apr - 01:28:50 10° WSW 01:34:20 28° S 01:40:04 10° SE night (unlit)
23 Apr - 03:22:47 10° WSW 03:27:34 20° SSW 03:32:32 10° SSE visible
23 Apr - 22:43:02 10° SSW 22:47:39 21° SSE 22:52:21 10° ESE visible
24 Apr - 00:35:22 10° SW 00:40:47 28° S 00:46:23 10° ESE night (unlit)
24 Apr - 02:28:57 10° WSW 02:34:00 23° SSW 02:39:14 10° SE night (unlit)
24 Apr - 04:25:30 10° SW 04:27:06 11° SSW 04:28:42 10° SSW visible
24 Apr - 21:50:06 10° SSW 21:54:11 17° SSE 21:58:16 10° ESE visible
24 Apr - 23:41:57 10° SW 23:47:15 27° S 23:52:40 10° ESE night (unlit)
25 Apr - 01:35:15 10° WSW 01:40:27 25° S 01:45:50 10° SE night (unlit)
25 Apr - 03:30:21 10° SW 03:33:34 14° SSW 03:36:52 10° S visible
25 Apr - 20:57:29 10° S 21:00:43 14° SSE 21:03:56 10° SE visible
25 Apr - 22:48:36 10° SW 22:53:44 25° S 22:58:56 10° ESE visible
26 Apr - 00:41:38 10° WSW 00:46:54 26° S 00:52:20 10° SE night (unlit)
26 Apr - 02:36:02 10° WSW 02:40:02 17° SSW 02:44:10 10° SSE night (unlit)
26 Apr - 20:05:37 10° S 20:07:16 11° SSE 20:08:54 10° SE daylight
26 Apr - 21:55:19 10° SW 22:00:14 23° SSE 22:05:08 10° ESE visible
26 Apr - 23:48:04 10° WSW 23:53:23 27° S 23:58:47 10° SE visible
27 Apr - 01:42:01 10° WSW 01:46:31 20° SSW 01:51:09 10° SSE night (unlit)
27 Apr - 21:02:10 10° SSW 21:06:45 20° SSE 21:11:16 10° ESE visible
27 Apr - 22:54:33 10° SW 22:59:51 27° S 23:05:13 10° ESE visible
28 Apr - 00:48:11 10° WSW 00:53:01 22° SSW 00:57:56 10° SE night (unlit)
28 Apr - 02:45:02 10° SW 02:46:01 10° SSW 02:47:01 10° SSW night (unlit)
28 Apr - 20:09:11 10° SSW 20:13:15 17° SSE 20:17:16 10° ESE daylight
28 Apr - 22:01:04 10° SW 22:06:20 26° S 22:11:36 10° ESE visible
28 Apr - 23:54:26 10° WSW 23:59:30 24° S 00:04:37 10° SE visible
29 Apr - 01:49:34 10° SW 01:52:33 13° SSW 01:55:33 10° S night (unlit)
29 Apr - 19:16:28 10° S 19:19:46 14° SSE 19:23:01 10° SE daylight
29 Apr - 21:07:38 10° SW 21:12:50 25° S 21:17:56 10° ESE visible
29 Apr - 23:00:45 10° WSW 23:05:59 26° S 23:11:14 10° SE visible
30 Apr - 00:55:12 10° WSW 00:59:03 16° SSW 01:02:58 10° SSE night (unlit)
30 Apr - 18:24:28 10° S 18:26:16 11° SSE 18:28:04 10° SE daylight
30 Apr - 20:14:17 10° SW 20:19:18 23° SSE 20:24:13 10° ESE visible
30 Apr - 22:07:07 10° WSW 22:12:29 27° S 22:17:47 10° SE visible
01 May - 00:01:09 10° WSW 00:05:35 19° SSW 00:10:03 10° SSE visible
01 May - 19:21:01 10° SSW 19:25:47 20° SSE 19:30:26 10° ESE daylight
01 May - 21:13:30 10° SW 21:18:57 27° S 21:24:17 10° ESE visible
01 May - 23:07:14 10° WSW 23:12:06 22° SSW 23:16:56 10° SE visible
